,,,PA_Meas_PMT16A,,PR_Meas_QMR101_102,,RH_Meas_QMH101,,SR_Meas_QMS101,,TA_Meas_QMH101,,GenWind,,GenWind,
date,time,status,PA,status,PR,status,RH,status,SR,status,TA,status,DirAvg,status,SpdAvg,
2009-08-12, 00:00:04,VALID,1000.98,VALID,0,VALID,90.4034,VALID,0,VALID,22.9615,VALID,347,VALID,0.265234,
2009-08-12, 00:01:04,VALID,1001.03,VALID,0,VALID,90.1821,VALID,0,VALID,22.9208,VALID,347,VALID,0.209375,
2009-08-12, 00:02:04,VALID,1001.01,VALID,0,VALID,90.1134,VALID,0,VALID,22.8623,VALID,347,VALID,0.288672,
2009-08-12, 00:03:04,VALID,1001.02,VALID,0,VALID,90.5102,VALID,0,VALID,22.8445,VALID,347,VALID,0.287891,
2009-08-12, 00:04:04,VALID,1000.97,VALID,0,VALID,90.7009,VALID,0,VALID,22.8427,VALID,347,VALID,0.296875,
2009-08-12, 00:05:04,VALID,1001.01,VALID,0,VALID,90.7772,VALID,0,VALID,22.8427,VALID,347,VALID,0.305469,
2009-08-12, 00:06:04,VALID,1000.98,VALID,0,VALID,90.7849,VALID,0,VALID,22.8427,VALID,347,VALID,0.380469,
2009-08-12, 00:07:04,VALID,1001,VALID,0,VALID,90.8154,VALID,0,VALID,22.864,VALID,347,VALID,0.425,
2009-08-12, 00:08:04,VALID,1000.95,VALID,0,VALID,90.7162,VALID,0,VALID,22.8623,VALID,347,VALID,0.470313,
2009-08-12, 00:09:04,VALID,1000.96,VALID,0,VALID,90.5102,VALID,0,VALID,22.9225,VALID,347,VALID,0.498047,
2009-08-12, 00:10:04,VALID,1000.94,VALID,0,VALID,90.2126,VALID,0,VALID,22.9403,VALID,71,VALID,0.4875,
2009-08-12, 00:11:04,VALID,1000.92,VALID,0,VALID,89.8922,VALID,0,VALID,23.0006,VALID,71,VALID,0.485938,
2009-08-12, 00:12:04,VALID,1000.93,VALID,0,VALID,89.3047,VALID,0,VALID,22.9793,VALID,71,VALID,0.708203,
2009-08-12, 00:13:04,VALID,1000.92,VALID,0,VALID,89.4191,VALID,0,VALID,22.9793,VALID,71,VALID,0.701172,
2009-08-12, 00:14:04,VALID,1000.91,VALID,0,VALID,88.8851,VALID,0,VALID,23.0201,VALID,70,VALID,0.812109,
2009-08-12, 00:15:04,VALID,1000.91,VALID,0,VALID,88.1374,VALID,0,VALID,23.0183,VALID,69,VALID,1.00508,
2009-08-12, 00:16:04,VALID,1000.93,VALID,0,VALID,88.6333,VALID,0,VALID,23.0396,VALID,67,VALID,0.771875,
2009-08-12, 00:17:04,VALID,1000.95,VALID,0,VALID,88.6867,VALID,0,VALID,23.0769,VALID,67,VALID,0.709375,
2009-08-12, 00:18:04,VALID,1000.94,VALID,0,VALID,88.4731,VALID,0,VALID,23.1549,VALID,67,VALID,0.45,
2009-08-12, 00:19:04,VALID,1000.94,VALID,0,VALID,87.7406,VALID,0,VALID,23.1744,VALID,67,VALID,0.320313,
2009-08-12, 00:20:04,VALID,1000.91,VALID,0,VALID,87.527,VALID,0,VALID,23.1744,VALID,67,VALID,0.36875,
2009-08-12, 00:21:04,VALID,1000.94,VALID,0,VALID,87.588,VALID,0,VALID,23.1549,VALID,67,VALID,0.44375,
2009-08-12, 00:22:04,VALID,1000.89,VALID,0,VALID,87.8169,VALID,0,VALID,23.1957,VALID,67,VALID,0.333984,
2009-08-12, 00:23:04,VALID,1000.87,VALID,0,VALID,87.3744,VALID,0,VALID,23.1744,VALID,71,VALID,0.643359,
2009-08-12, 00:24:04,VALID,1000.82,VALID,0,VALID,87.588,VALID,0,VALID,23.1939,VALID,77,VALID,0.681641,
2009-08-12, 00:25:04,VALID,1000.83,VALID,0,VALID,87.5499,VALID,0,VALID,23.2329,VALID,77,VALID,0.857031,
2009-08-12, 00:26:04,VALID,1000.79,VALID,0,VALID,87.2752,VALID,0,VALID,23.2737,VALID,77,VALID,0.825781,
2009-08-12, 00:27:04,VALID,1000.8,VALID,0,VALID,87.4126,VALID,0,VALID,23.2737,VALID,77,VALID,0.818359,
2009-08-12, 00:28:04,VALID,1000.76,VALID,0,VALID,87.4202,VALID,0,VALID,23.2524,VALID,77,VALID,0.702734,
2009-08-12, 00:29:05,VALID,1000.77,VALID,0,VALID,87.3439,VALID,0,VALID,23.2524,VALID,77,VALID,0.662109,
2009-08-12, 00:30:05,VALID,1000.77,VALID,0,VALID,87.5041,VALID,0,VALID,23.2524,VALID,77,VALID,0.630078,
2009-08-12, 00:31:05,VALID,1000.74,VALID,0,VALID,87.7101,VALID,0,VALID,23.2524,VALID,77,VALID,0.535937,
2009-08-12, 00:32:05,VALID,1000.74,VALID,0,VALID,86.3826,VALID,0,VALID,23.1744,VALID,77,VALID,0.633594,
2009-08-12, 00:33:05,VALID,1000.75,VALID,0,VALID,87.6338,VALID,0,VALID,23.1159,VALID,77,VALID,0.564453,
2009-08-12, 00:34:05,VALID,1000.74,VALID,0,VALID,88.0763,VALID,0,VALID,23.0964,VALID,77,VALID,0.664063,
2009-08-12, 00:35:05,VALID,1000.74,VALID,0,VALID,88.0611,VALID,0,VALID,23.0964,VALID,77,VALID,0.719922,
2009-08-12, 00:36:05,VALID,1000.72,VALID,0,VALID,86.6649,VALID,0,VALID,23.0573,VALID,77,VALID,0.697656,
2009-08-12, 00:37:05,VALID,1000.74,VALID,0,VALID,87.7864,VALID,0,VALID,22.9225,VALID,73,VALID,0.934375,
2009-08-12, 00:38:05,VALID,1000.71,VALID,0,VALID,88.412,VALID,0,VALID,22.9013,VALID,73,VALID,0.954687,
2009-08-12, 00:39:05,VALID,1000.72,VALID,0,VALID,88.5341,VALID,0,VALID,22.903,VALID,73,VALID,0.976953,
2009-08-12, 00:40:05,VALID,1000.74,VALID,0,VALID,88.2442,VALID,0,VALID,22.8623,VALID,73,VALID,0.920703,
2009-08-12, 00:41:05,VALID,1000.72,VALID,0,VALID,88.4426,VALID,0,VALID,22.8232,VALID,73,VALID,1.04648,
2009-08-12, 00:42:05,VALID,1000.69,VALID,0,VALID,88.3663,VALID,0,VALID,22.7647,VALID,74,VALID,1.00469,
2009-08-12, 00:43:05,VALID,1000.69,VALID,0,VALID,88.5799,VALID,0,VALID,22.7257,VALID,74,VALID,0.895312,
2009-08-12, 00:44:05,VALID,1000.69,VALID,0,VALID,88.6867,VALID,0,VALID,22.6867,VALID,74,VALID,0.849609,
2009-08-12, 00:45:05,VALID,1000.73,VALID,0,VALID,88.2823,VALID,0,VALID,22.6477,VALID,74,VALID,0.653516,
2009-08-12, 00:46:05,VALID,1000.73,VALID,0,VALID,88.29,VALID,0,VALID,22.5696,VALID,74,VALID,0.609375,
2009-08-12, 00:47:05,VALID,1000.74,VALID,0,VALID,88.4807,VALID,0,VALID,22.5111,VALID,60,VALID,0.586719,
2009-08-12, 00:48:05,VALID,1000.73,VALID,0,VALID,88.5265,VALID,0,VALID,22.4526,VALID,47,VALID,0.299219,
2009-08-12, 00:49:05,VALID,1000.76,VALID,0,VALID,89.114,VALID,0,VALID,22.4136,VALID,316,VALID,0.574219,
2009-08-12, 00:50:05,VALID,1000.75,VALID,0,VALID,89.5565,VALID,0,VALID,22.4331,VALID,300,VALID,0.637109,
2009-08-12, 00:51:05,VALID,1000.75,VALID,0,VALID,89.9151,VALID,0,VALID,22.4119,VALID,287,VALID,0.575,
2009-08-12, 00:52:05,VALID,1000.72,VALID,0,VALID,90.0143,VALID,0,VALID,22.4526,VALID,286,VALID,0.410156,
2009-08-12, 00:53:05,VALID,1000.72,VALID,0,VALID,90.1211,VALID,0.112286,VALID,22.4916,VALID,307,VALID,0.541016,
2009-08-12, 00:54:05,VALID,1000.74,VALID,0,VALID,90.3042,VALID,0,VALID,22.5306,VALID,338,VALID,0.119922,
2009-08-12, 00:55:05,VALID,1000.73,VALID,0,VALID,90.5102,VALID,0.112286,VALID,22.5501,VALID,338,VALID,0.705859,
2009-08-12, 00:56:05,VALID,1000.73,VALID,0,VALID,90.3423,VALID,0,VALID,22.5696,VALID,338,VALID,0.388672,
2009-08-12, 00:57:05,VALID,1000.69,VALID,0,VALID,90.0448,VALID,0,VALID,22.5501,VALID,338,VALID,0.335938,
2009-08-12, 00:58:05,VALID,1000.69,VALID,0,VALID,90.2279,VALID,0,VALID,22.4916,VALID,338,VALID,0.186328,
2009-08-12, 00:59:05,VALID,1000.65,VALID,0,VALID,90.2584,VALID,0,VALID,22.4916,VALID,338,VALID,0,
2009-08-12, 01:00:05,VALID,1000.66,VALID,0,VALID,90.3194,VALID,0,VALID,22.4721,VALID,338,VALID,0.015625,
2009-08-12, 01:01:05,VALID,1000.66,VALID,0,VALID,90.3805,VALID,0,VALID,22.4331,VALID,12,VALID,0.517969,
2009-08-12, 01:02:05,VALID,1000.68,VALID,0,VALID,90.7162,VALID,0,VALID,22.4331,VALID,44,VALID,0.578906,
2009-08-12, 01:03:05,VALID,1000.7,VALID,0,VALID,90.9909,VALID,0,VALID,22.4526,VALID,46,VALID,0.679297,
2009-08-12, 01:04:05,VALID,1000.69,VALID,0,VALID,90.884,VALID,0,VALID,22.4933,VALID,50,VALID,0.562109,
2009-08-12, 01:05:05,VALID,1000.65,VALID,0,VALID,90.7696,VALID,0,VALID,22.4916,VALID,50,VALID,0.515234,
2009-08-12, 01:06:05,VALID,1000.64,VALID,0,VALID,90.6857,VALID,0,VALID,22.4916,VALID,50,VALID,0.361328,
2009-08-12, 01:07:05,VALID,1000.65,VALID,0,VALID,90.5407,VALID,0,VALID,22.4526,VALID,50,VALID,0.390625,
2009-08-12, 01:08:05,VALID,1000.67,VALID,0,VALID,90.1592,VALID,0,VALID,22.3941,VALID,50,VALID,0.360156,
2009-08-12, 01:09:05,VALID,1000.64,VALID,0,VALID,89.8083,VALID,0,VALID,22.2966,VALID,50,VALID,0.630469,
2009-08-12, 01:10:05,VALID,1000.64,VALID,0,VALID,89.9609,VALID,0,VALID,22.1584,VALID,50,VALID,0.420312,
2009-08-12, 01:11:05,VALID,1000.62,VALID,0,VALID,90.1592,VALID,0,VALID,22.082,VALID,50,VALID,0.396094,
2009-08-12, 01:12:05,VALID,1000.62,VALID,0,VALID,90.2889,VALID,0,VALID,22.0447,VALID,50,VALID,0.259375,
2009-08-12, 01:13:05,VALID,1000.64,VALID,0,VALID,90.4949,VALID,0,VALID,21.9845,VALID,58,VALID,0.599219,
2009-08-12, 01:14:05,VALID,1000.61,VALID,0,VALID,90.7772,VALID,0,VALID,21.9455,VALID,64,VALID,0.766406,
2009-08-12, 01:15:05,VALID,1000.63,VALID,0,VALID,91.2808,VALID,0,VALID,21.9455,VALID,64,VALID,0.810156,
2009-08-12, 01:16:05,VALID,1000.64,VALID,0,VALID,91.2045,VALID,0,VALID,21.965,VALID,64,VALID,0.676953,
2009-08-12, 01:17:05,VALID,1000.63,VALID,0,VALID,91.2426,VALID,0,VALID,21.965,VALID,65,VALID,0.70625,
2009-08-12, 01:18:05,VALID,1000.61,VALID,0,VALID,91.3723,VALID,0,VALID,21.965,VALID,83,VALID,0.661328,
2009-08-12, 01:19:05,VALID,1000.61,VALID,0,VALID,91.3189,VALID,0,VALID,21.965,VALID,83,VALID,0.587891,
2009-08-12, 01:20:05,VALID,1000.62,VALID,0,VALID,91.7996,VALID,0,VALID,21.9455,VALID,83,VALID,1.09219,
2009-08-12, 01:21:05,VALID,1000.6,VALID,0,VALID,91.8683,VALID,0,VALID,22.004,VALID,82,VALID,0.805859,
2009-08-12, 01:22:05,VALID,1000.61,VALID,0,VALID,91.502,VALID,0,VALID,22.043,VALID,82,VALID,0.691016,
2009-08-12, 01:23:05,VALID,1000.62,VALID,0,VALID,91.174,VALID,0,VALID,22.004,VALID,82,VALID,1.0582,
2009-08-12, 01:24:05,VALID,1000.63,VALID,0,VALID,90.9909,VALID,0.112286,VALID,21.9455,VALID,83,VALID,0.989062,
2009-08-12, 01:25:05,VALID,1000.58,VALID,0,VALID,91.3647,VALID,0,VALID,21.926,VALID,84,VALID,0.945703,
2009-08-12, 01:26:05,VALID,1000.63,VALID,0,VALID,91.5249,VALID,0,VALID,21.9455,VALID,84,VALID,0.883203,
2009-08-12, 01:27:05,VALID,1000.63,VALID,0,VALID,91.586,VALID,0,VALID,21.9455,VALID,85,VALID,0.468359,
2009-08-12, 01:28:05,VALID,1000.62,VALID,0,VALID,91.5402,VALID,0,VALID,21.9455,VALID,85,VALID,0.760156,
2009-08-12, 01:29:05,VALID,1000.57,VALID,0,VALID,91.7309,VALID,0,VALID,21.9845,VALID,85,VALID,0.8,
2009-08-12, 01:30:05,VALID,1000.58,VALID,0,VALID,91.6546,VALID,0,VALID,22.0252,VALID,85,VALID,0.89375,
2009-08-12, 01:31:05,VALID,1000.58,VALID,0,VALID,91.4868,VALID,0,VALID,22.0235,VALID,85,VALID,0.683984,
2009-08-12, 01:32:05,VALID,1000.58,VALID,0,VALID,91.4868,VALID,0,VALID,22.0235,VALID,85,VALID,0.734766,
2009-08-12, 01:33:05,VALID,1000.58,VALID,0,VALID,91.8072,VALID,0,VALID,22.0625,VALID,88,VALID,0.93125,
2009-08-12, 01:34:05,VALID,1000.57,VALID,0,VALID,91.6317,VALID,0,VALID,22.121,VALID,95,VALID,0.835938,
2009-08-12, 01:35:05,VALID,1000.56,VALID,0,VALID,91.7004,VALID,0,VALID,22.1405,VALID,96,VALID,0.991016,
2009-08-12, 01:36:05,VALID,1000.57,VALID,0,VALID,91.5402,VALID,0,VALID,22.1795,VALID,96,VALID,0.947266,
2009-08-12, 01:37:05,VALID,1000.57,VALID,0,VALID,91.1892,VALID,0,VALID,22.1795,VALID,96,VALID,0.966797,
2009-08-12, 01:38:05,VALID,1000.58,VALID,0,VALID,91.0214,VALID,0,VALID,22.16,VALID,92,VALID,0.803906,
2009-08-12, 01:39:05,VALID,1000.59,VALID,0,VALID,90.6628,VALID,0,VALID,22.121,VALID,92,VALID,0.580469,
2009-08-12, 01:40:05,VALID,1000.58,VALID,0,VALID,90.6857,VALID,0,VALID,22.082,VALID,91,VALID,0.694531,
2009-08-12, 01:41:05,VALID,1000.59,VALID,0,VALID,90.8917,VALID,0,VALID,22.0625,VALID,91,VALID,0.555469,
2009-08-12, 01:42:05,VALID,1000.62,VALID,0,VALID,90.8917,VALID,0,VALID,22.043,VALID,91,VALID,0.425781,
2009-08-12, 01:43:05,VALID,1000.62,VALID,0,VALID,91.0443,VALID,0,VALID,22.043,VALID,91,VALID,0.319922,
2009-08-12, 01:44:05,VALID,1000.62,VALID,0,VALID,91.2274,VALID,0,VALID,22.043,VALID,91,VALID,0.482812,
2009-08-12, 01:45:05,VALID,1000.65,VALID,0,VALID,91.235,VALID,0.112286,VALID,22.0625,VALID,91,VALID,0.419141,
2009-08-12, 01:46:05,VALID,1000.66,VALID,0,VALID,90.6933,VALID,0,VALID,22.0235,VALID,91,VALID,0.328516,
2009-08-12, 01:47:05,VALID,1000.64,VALID,0,VALID,90.5026,VALID,0,VALID,21.9472,VALID,12,VALID,0.511719,
2009-08-12, 01:48:05,VALID,1000.63,VALID,0,VALID,91.0977,VALID,0,VALID,21.9065,VALID,12,VALID,0.677734,
2009-08-12, 01:49:05,VALID,1000.61,VALID,0,VALID,91.5402,VALID,0,VALID,21.926,VALID,12,VALID,0.996484,
2009-08-12, 01:50:05,VALID,1000.6,VALID,0,VALID,91.7691,VALID,0,VALID,21.9845,VALID,12,VALID,0.954687,
2009-08-12, 01:51:05,VALID,1000.58,VALID,0,VALID,91.3723,VALID,0,VALID,21.9845,VALID,12,VALID,0.861328,
2009-08-12, 01:52:05,VALID,1000.59,VALID,0,VALID,91.1892,VALID,0,VALID,21.9455,VALID,26,VALID,1.1918,
2009-08-12, 01:53:05,VALID,1000.61,VALID,0,VALID,90.9527,VALID,0,VALID,21.887,VALID,26,VALID,1.05,
2009-08-12, 01:54:05,VALID,1000.61,VALID,0,VALID,91.4715,VALID,0,VALID,21.8285,VALID,23,VALID,1.0707,
2009-08-12, 01:55:05,VALID,1000.6,VALID,0,VALID,91.7385,VALID,0,VALID,21.8285,VALID,22,VALID,0.84375,
2009-08-12, 01:56:05,VALID,1000.6,VALID,0,VALID,91.6928,VALID,0,VALID,21.848,VALID,22,VALID,0.901563,
2009-08-12, 01:57:05,VALID,1000.57,VALID,0,VALID,91.5173,VALID,0,VALID,21.8285,VALID,22,VALID,0.871875,
2009-08-12, 01:58:05,VALID,1000.61,VALID,0,VALID,91.6928,VALID,0,VALID,21.8285,VALID,22,VALID,0.71875,
2009-08-12, 01:59:05,VALID,1000.59,VALID,0,VALID,91.7157,VALID,0,VALID,21.809,VALID,22,VALID,0.546484,
2009-08-12, 02:00:05,VALID,1000.57,VALID,0,VALID,91.6623,VALID,0.112286,VALID,21.809,VALID,22,VALID,0.387109,
2009-08-12, 02:01:05,VALID,1000.55,VALID,0,VALID,91.5402,VALID,0,VALID,21.7895,VALID,22,VALID,0.327734,
2009-08-12, 02:02:05,VALID,1000.57,VALID,0,VALID,91.5478,VALID,0,VALID,21.7505,VALID,22,VALID,0.354688,
2009-08-12, 02:03:05,VALID,1000.58,VALID,0,VALID,91.4944,VALID,0,VALID,21.7505,VALID,22,VALID,0.519141,
2009-08-12, 02:04:05,VALID,1000.54,VALID,0,VALID,91.4486,VALID,0.112286,VALID,21.7115,VALID,22,VALID,0.265625,
2009-08-12, 02:05:05,VALID,1000.53,VALID,0,VALID,91.4334,VALID,0,VALID,21.6725,VALID,22,VALID,0,
2009-08-12, 02:06:05,VALID,1000.5,VALID,0,VALID,91.586,VALID,0,VALID,21.6513,VALID,22,VALID,0.206641,
2009-08-12, 02:07:05,VALID,1000.51,VALID,0,VALID,91.6851,VALID,0,VALID,21.653,VALID,22,VALID,0.106641,
2009-08-12, 02:08:05,VALID,1000.46,VALID,0,VALID,91.7157,VALID,0,VALID,21.6335,VALID,22,VALID,0.0453125,
2009-08-12, 02:09:05,VALID,1000.43,VALID,0,VALID,91.8072,VALID,0,VALID,21.6741,VALID,22,VALID,0,
2009-08-12, 02:10:05,VALID,1000.45,VALID,0,VALID,91.8988,VALID,0,VALID,21.6936,VALID,22,VALID,0.00429688,
2009-08-12, 02:11:05,VALID,1000.43,VALID,0,VALID,91.9369,VALID,0,VALID,21.692,VALID,22,VALID,0.00117188,
2009-08-12, 02:12:05,VALID,1000.39,VALID,0,VALID,91.9751,VALID,0,VALID,21.692,VALID,22,VALID,0,
2009-08-12, 02:13:05,VALID,1000.4,VALID,0,VALID,91.8835,VALID,0,VALID,21.692,VALID,22,VALID,0,
2009-08-12, 02:14:05,VALID,1000.38,VALID,0,VALID,91.9217,VALID,0,VALID,21.7115,VALID,22,VALID,0,
2009-08-12, 02:15:05,VALID,1000.38,VALID,0,VALID,92.1277,VALID,0.112286,VALID,21.731,VALID,22,VALID,0,
2009-08-12, 02:16:05,VALID,1000.43,VALID,0,VALID,92.1506,VALID,0,VALID,21.77,VALID,22,VALID,0,
2009-08-12, 02:17:05,VALID,1000.42,VALID,0,VALID,92.0895,VALID,0,VALID,21.77,VALID,22,VALID,0,
2009-08-12, 02:18:05,VALID,1000.39,VALID,0,VALID,92.1353,VALID,0,VALID,21.7505,VALID,22,VALID,0,
2009-08-12, 02:19:05,VALID,1000.4,VALID,0,VALID,92.1811,VALID,0,VALID,21.7716,VALID,22,VALID,0,
2009-08-12, 02:20:05,VALID,1000.39,VALID,0,VALID,92.1811,VALID,0,VALID,21.7505,VALID,22,VALID,0,
2009-08-12, 02:21:05,VALID,1000.41,VALID,0,VALID,92.2497,VALID,0.112286,VALID,21.7505,VALID,22,VALID,0.176172,
2009-08-12, 02:22:05,VALID,1000.38,VALID,0,VALID,92.2955,VALID,0,VALID,21.7505,VALID,22,VALID,0.226172,
2009-08-12, 02:23:05,VALID,1000.35,VALID,0,VALID,92.2803,VALID,0,VALID,21.77,VALID,22,VALID,0.228516,
2009-08-12, 02:24:05,VALID,1000.34,VALID,0,VALID,92.1277,VALID,0,VALID,21.7505,VALID,22,VALID,0.196094,
2009-08-12, 02:25:05,VALID,1000.32,VALID,0,VALID,91.7996,VALID,0,VALID,21.6725,VALID,22,VALID,0.0105469,
2009-08-12, 02:26:05,VALID,1000.34,VALID,0,VALID,91.8377,VALID,0,VALID,21.614,VALID,22,VALID,0.235938,
2009-08-12, 02:27:05,VALID,1000.31,VALID,0,VALID,91.9751,VALID,0,VALID,21.5766,VALID,22,VALID,0.425,
2009-08-12, 02:28:05,VALID,1000.36,VALID,0,VALID,92.0437,VALID,0,VALID,21.5555,VALID,22,VALID,0.420312,
2009-08-12, 02:29:05,VALID,1000.33,VALID,0,VALID,92.0514,VALID,0,VALID,21.5376,VALID,22,VALID,0.0375,
2009-08-12, 02:30:05,VALID,1000.38,VALID,0,VALID,92.0056,VALID,0,VALID,21.4775,VALID,22,VALID,0,
2009-08-12, 02:31:05,VALID,1000.4,VALID,0,VALID,92.1277,VALID,0,VALID,21.4986,VALID,22,VALID,0,
2009-08-12, 02:32:05,VALID,1000.41,VALID,0,VALID,92.3489,VALID,0,VALID,21.4986,VALID,22,VALID,0,
2009-08-12, 02:33:05,VALID,1000.42,VALID,0,VALID,92.3947,VALID,0,VALID,21.5165,VALID,22,VALID,0,
2009-08-12, 02:34:05,VALID,1000.43,VALID,0,VALID,92.4634,VALID,0.112286,VALID,21.536,VALID,22,VALID,0,
2009-08-12, 02:35:05,VALID,1000.45,VALID,0,VALID,92.4481,VALID,0,VALID,21.5766,VALID,22,VALID,0.256641,
2009-08-12, 02:36:05,VALID,1000.49,VALID,0,VALID,92.3108,VALID,0,VALID,21.5961,VALID,17,VALID,0.573828,
2009-08-12, 02:37:05,VALID,1000.49,VALID,0,VALID,92.0132,VALID,0,VALID,21.5165,VALID,352,VALID,0.662109,
2009-08-12, 02:38:05,VALID,1000.51,VALID,0,VALID,92.12,VALID,0,VALID,21.4775,VALID,352,VALID,0.418359,
2009-08-12, 02:39:05,VALID,1000.49,VALID,0,VALID,91.8835,VALID,0,VALID,21.4401,VALID,351,VALID,0.542578,
2009-08-12, 02:40:05,VALID,1000.49,VALID,0,VALID,92.2497,VALID,0,VALID,21.4401,VALID,351,VALID,0.492188,
2009-08-12, 02:41:05,VALID,1000.51,VALID,0,VALID,92.3642,VALID,0,VALID,21.419,VALID,351,VALID,0.422656,
2009-08-12, 02:42:05,VALID,1000.48,VALID,0,VALID,92.6236,VALID,0,VALID,21.4775,VALID,351,VALID,0.179688,
2009-08-12, 02:43:05,VALID,1000.46,VALID,0,VALID,92.616,VALID,0,VALID,21.497,VALID,351,VALID,0,
2009-08-12, 02:44:05,VALID,1000.47,VALID,0,VALID,92.6312,VALID,0,VALID,21.5165,VALID,351,VALID,0.261328,
2009-08-12, 02:45:05,VALID,1000.46,VALID,0,VALID,92.7762,VALID,0,VALID,21.536,VALID,351,VALID,0.517969,
2009-08-12, 02:46:05,VALID,1000.45,VALID,0,VALID,92.8296,VALID,0,VALID,21.575,VALID,351,VALID,0.55,
2009-08-12, 02:47:05,VALID,1000.41,VALID,0,VALID,92.5244,VALID,0,VALID,21.614,VALID,351,VALID,0.615234,
2009-08-12, 02:48:05,VALID,1000.43,VALID,0,VALID,92.6312,VALID,0,VALID,21.6335,VALID,351,VALID,0.517969,
2009-08-12, 02:49:05,VALID,1000.45,VALID,0,VALID,92.6236,VALID,0,VALID,21.6741,VALID,48,VALID,0.596094,
2009-08-12, 02:50:05,VALID,1000.47,VALID,0,VALID,92.5168,VALID,0,VALID,21.6725,VALID,48,VALID,0.483203,
2009-08-12, 02:51:05,VALID,1000.45,VALID,0,VALID,92.326,VALID,0,VALID,21.692,VALID,48,VALID,0.522266,
2009-08-12, 02:52:05,VALID,1000.45,VALID,0,VALID,92.265,VALID,0,VALID,21.692,VALID,48,VALID,0.553906,
2009-08-12, 02:53:05,VALID,1000.46,VALID,0,VALID,92.1582,VALID,0,VALID,21.692,VALID,48,VALID,0.566797,
2009-08-12, 02:54:05,VALID,1000.43,VALID,0,VALID,92.1277,VALID,0,VALID,21.653,VALID,48,VALID,0.630859,
2009-08-12, 02:55:05,VALID,1000.45,VALID,0,VALID,92.1124,VALID,0,VALID,21.614,VALID,27,VALID,0.748828,
2009-08-12, 02:56:05,VALID,1000.45,VALID,0,VALID,91.5631,VALID,0,VALID,21.5555,VALID,19,VALID,0.673828,
2009-08-12, 02:57:05,VALID,1000.42,VALID,0,VALID,91.9369,VALID,0,VALID,21.4775,VALID,16,VALID,0.569531,
2009-08-12, 02:58:05,VALID,1000.45,VALID,0,VALID,91.8301,VALID,0,VALID,21.3995,VALID,11,VALID,0.465625,
2009-08-12, 02:59:05,VALID,1000.45,VALID,0,VALID,92.3184,VALID,0,VALID,21.3995,VALID,358,VALID,0.35625,
2009-08-12, 03:00:05,VALID,1000.44,VALID,0,VALID,92.3566,VALID,0,VALID,21.3995,VALID,357,VALID,0.442969,
2009-08-12, 03:01:05,VALID,1000.47,VALID,0,VALID,92.5091,VALID,0,VALID,21.419,VALID,328,VALID,0.50625,
2009-08-12, 03:02:05,VALID,1000.48,VALID,0,VALID,92.3108,VALID,0,VALID,21.4011,VALID,328,VALID,0.375781,
2009-08-12, 03:03:05,VALID,1000.46,VALID,0,VALID,92.3413,VALID,0,VALID,21.341,VALID,328,VALID,0.469531,
2009-08-12, 03:04:05,VALID,1000.5,VALID,0,VALID,92.5244,VALID,0,VALID,21.3605,VALID,328,VALID,0.307813,
2009-08-12, 03:05:05,VALID,1000.47,VALID,0,VALID,92.4863,VALID,0,VALID,21.3605,VALID,328,VALID,0.245703,
2009-08-12, 03:06:05,VALID,1000.51,VALID,0,VALID,92.4939,VALID,0,VALID,21.3605,VALID,328,VALID,0.243359,
2009-08-12, 03:07:05,VALID,1000.56,VALID,0,VALID,92.6236,VALID,0,VALID,21.3621,VALID,328,VALID,0.180078,
2009-08-12, 03:08:05,VALID,1000.54,VALID,0,VALID,92.7075,VALID,0,VALID,21.3816,VALID,328,VALID,0.273438,
2009-08-12, 03:09:05,VALID,1000.56,VALID,0,VALID,92.738,VALID,0,VALID,21.3816,VALID,328,VALID,0.250781,
2009-08-12, 03:10:05,VALID,1000.57,VALID,0,VALID,92.6923,VALID,0,VALID,21.38,VALID,328,VALID,0.170312,
2009-08-12, 03:11:05,VALID,1000.56,VALID,0,VALID,92.7075,VALID,0,VALID,21.3995,VALID,328,VALID,0.370313,
2009-08-12, 03:12:05,VALID,1000.55,VALID,0,VALID,92.7075,VALID,0,VALID,21.3995,VALID,328,VALID,0.346484,
2009-08-12, 03:13:04,VALID,1000.56,VALID,0,VALID,92.7762,VALID,0,VALID,21.3995,VALID,328,VALID,0.353125,
2009-08-12, 03:14:04,VALID,1000.54,VALID,0,VALID,92.8754,VALID,0,VALID,21.419,VALID,328,VALID,0.450781,
2009-08-12, 03:15:04,VALID,1000.59,VALID,0,VALID,92.6999,VALID,0.112286,VALID,21.4596,VALID,332,VALID,0.277344,
2009-08-12, 03:16:04,VALID,1000.58,VALID,0,VALID,92.7151,VALID,0,VALID,21.4385,VALID,332,VALID,0.247656,
2009-08-12, 03:17:04,VALID,1000.55,VALID,0,VALID,92.7685,VALID,0,VALID,21.4385,VALID,332,VALID,0.249219,
2009-08-12, 03:18:04,VALID,1000.57,VALID,0,VALID,92.7457,VALID,0,VALID,21.458,VALID,332,VALID,0.364062,
2009-08-12, 03:19:04,VALID,1000.59,VALID,0,VALID,92.6312,VALID,0,VALID,21.4385,VALID,332,VALID,0.480859,
2009-08-12, 03:20:04,VALID,1000.58,VALID,0,VALID,92.4176,VALID,0,VALID,21.4011,VALID,332,VALID,0.470313,
2009-08-12, 03:21:04,VALID,1000.61,VALID,0,VALID,92.5626,VALID,0,VALID,21.3426,VALID,332,VALID,0.630859,
2009-08-12, 03:22:04,VALID,1000.6,VALID,0,VALID,92.8754,VALID,0,VALID,21.3215,VALID,350,VALID,0.728516,
2009-08-12, 03:23:04,VALID,1000.62,VALID,0,VALID,92.738,VALID,0,VALID,21.3215,VALID,9,VALID,0.907422,
2009-08-12, 03:24:04,VALID,1000.64,VALID,0,VALID,92.822,VALID,0.112286,VALID,21.3426,VALID,9,VALID,0.959375,
2009-08-12, 03:25:04,VALID,1000.63,VALID,0,VALID,92.8754,VALID,0,VALID,21.3215,VALID,11,VALID,0.839453,
2009-08-12, 03:26:04,VALID,1000.66,VALID,0,VALID,92.8143,VALID,0,VALID,21.341,VALID,11,VALID,0.664453,
2009-08-12, 03:27:04,VALID,1000.69,VALID,0,VALID,92.7075,VALID,0,VALID,21.341,VALID,11,VALID,0.585547,
2009-08-12, 03:28:04,VALID,1000.7,VALID,0,VALID,92.6846,VALID,0,VALID,21.3426,VALID,19,VALID,0.630469,
2009-08-12, 03:29:04,VALID,1000.7,VALID,0,VALID,92.6312,VALID,0,VALID,21.3215,VALID,25,VALID,0.704687,
2009-08-12, 03:30:04,VALID,1000.7,VALID,0,VALID,92.4176,VALID,0,VALID,21.302,VALID,30,VALID,0.767187,
2009-08-12, 03:31:04,VALID,1000.71,VALID,0,VALID,92.5168,VALID,0,VALID,21.3036,VALID,38,VALID,0.879297,
2009-08-12, 03:32:04,VALID,1000.74,VALID,0,VALID,92.5778,VALID,0,VALID,21.3036,VALID,39,VALID,0.955078,
2009-08-12, 03:33:04,VALID,1000.74,VALID,0,VALID,92.5244,VALID,0,VALID,21.3036,VALID,40,VALID,0.95625,
2009-08-12, 03:34:04,VALID,1000.72,VALID,0,VALID,92.4328,VALID,0,VALID,21.2825,VALID,40,VALID,0.840234,
2009-08-12, 03:35:04,VALID,1000.72,VALID,0,VALID,92.326,VALID,0,VALID,21.3036,VALID,40,VALID,0.712891,
2009-08-12, 03:36:04,VALID,1000.74,VALID,0,VALID,92.0056,VALID,0,VALID,21.263,VALID,40,VALID,0.703906,
2009-08-12, 03:37:04,VALID,1000.72,VALID,0,VALID,92.0056,VALID,0,VALID,21.2451,VALID,40,VALID,0.670313,
2009-08-12, 03:38:04,VALID,1000.74,VALID,0,VALID,91.998,VALID,0,VALID,21.185,VALID,40,VALID,0.621094,
2009-08-12, 03:39:04,VALID,1000.75,VALID,0,VALID,91.6088,VALID,0,VALID,21.0875,VALID,40,VALID,0.554297,
2009-08-12, 03:40:04,VALID,1000.77,VALID,0,VALID,91.6165,VALID,0,VALID,21.0501,VALID,40,VALID,0.550781,
2009-08-12, 03:41:04,VALID,1000.77,VALID,0,VALID,91.6928,VALID,0,VALID,20.9721,VALID,40,VALID,0.816016,
2009-08-12, 03:42:04,VALID,1000.78,VALID,0,VALID,91.998,VALID,0,VALID,20.9136,VALID,40,VALID,0.858984,
2009-08-12, 03:43:04,VALID,1000.8,VALID,0,VALID,92.944,VALID,0,VALID,20.951,VALID,41,VALID,0.854688,
2009-08-12, 03:44:04,VALID,1000.81,VALID,0,VALID,92.6083,VALID,0,VALID,20.99,VALID,41,VALID,0.987891,
2009-08-12, 03:45:04,VALID,1000.82,VALID,0,VALID,92.4176,VALID,0,VALID,20.99,VALID,41,VALID,0.871094,
2009-08-12, 03:46:04,VALID,1000.82,VALID,0,VALID,92.6083,VALID,0,VALID,20.9916,VALID,40,VALID,0.939453,
2009-08-12, 03:47:04,VALID,1000.8,VALID,0,VALID,92.9669,VALID,0,VALID,20.99,VALID,33,VALID,1.00625,